STARLINK-37609, 69036

Orbit data source: Space-Track

STARLINK-37609, 69036 is a payload satellite owned by SpaceX/Seattle (US) in SSO that was launched on Wed, 06 May 2026 UTC via an FALCON 9 launch vehicle from the Air Force Western Test Range (AFWTR). Payload-class satellites include a variety of spacecraft equipped with specific instruments for various scientific and technological missions. These include communications satellites like Starlink; space stations such as the ISS; scientific satellites like the Hubble; Earth observation satellites from companies like Planet Labs, Umbra, and HawkEye 360; GPS; miniature CubeSats for education and research; and military/defense satellites.

Loading next visibility...
Identifier
69036, 2026-101M
Orbit
SSO
Country
Flag of USUS
Related business
Manufacturer
SpaceX/Seattle
Mission
Operational Commercial Communications
Bus & Motor
STARLINK V2MO, Unknown motor
Mass
575 kg wet, ~530 kg dry
Launch date (UTC)
2026-05-06 (3 months ago)
Launch vehicle
FALCON 9
Launch site
Air Force Western Test Range (AFWTR)
Object type
Payload
Rocket body
Debris
Shape & HBR
Box + 2 Pan, 17.7 m
Radar Cross Section
36.964 m², Large (>1 m²)

Expand to show TLE details & history
Last TLE update: 14 hours ago

TLE from 14 hours ago
0 STARLINK-37609
1 69036U 26101M   26206.55291273  .00019743  00000-0  61230-3 0  9993
2 69036  97.2861  60.8730 0001820  90.7059 269.4392 15.33442664 12459
Epoch: 2026-07-25T13:16Z
TLE epoch observation values (Epoch: 2026-07-25T13:16:11.659Z)
Latitude
-0.00008°
Longitude
-81.43912°
Altitude
468.675 km
Speed
7.632 km/s
True Right ascension
04h 03m 29s
True Declination
0° 00' 00"
Sunlit
Object was in daylight at epoch
Visualization orbit readout
Latitude
Unknown
Longitude
Unknown
Altitude
Unknown
Speed
Unknown
Apparent Right ascension
Unknown
Apparent Declination
Unknown
Sunlit
N/A
Visualization observer readout
Local Sidereal Time
16:19:09
Azimuth
Unknown
Elevation
Unknown
Doppler factor
Unknown
Orbital elements
Apogee altitude
463.738 km
Perigee altitude
461.248 km
Semi-major axis
6,840.63 km
Eccentricity
0.00018
Inclination
97.2861°
RAAN
60.873°
Arg. of periapsis
90.7059°
True anomaly
269.41835°
Mean anomaly
269.4392°
Eccentric anomaly
269.42877°
Mean motion
3.83618 °/min
Orbital period
93.84 mins
BSTAR
0.0006123
Loading maneuver chart data...
Computing Atmospheric mass density...
Loading historical data...
Loading historical data...
Loading historical data...
Loading historical data...
Loading historical data...
Loading historical data...
Loading historical data...

Documentation

Showing up to 5 results
|